Location: Antioch Church
(34.9543°N, 88.5145°W)
Time: 10:24:31
(UTC+00:00)

STARLINK 1060 - Pass Details

Date: 11 December 2019
Orbit: 498 x 500 km, 53.0° (Epoch: 28 January)

Event Time Altitude Azimuth Distance (km) Brightness Sun altitude
Exits shadow 11:21:30 51° 282° (WNW) 576 3.3 -17.9°
Maximum altitude 11:22:10 66° 227° (SW) 499 3.2 -17.8°
Drops below altitude 10° 11:25:43 10° 145° (SE) 1,593 6.7 -17.1°
Sets 11:27:52 0° 142° (SE) 2,471 7.9 -16.7°
